Location: San Francisco
(37.7750°N, 122.4180°W)
Time: 07:01:45
(UTC-07:00)

Daily predictions for brighter satellites

Satellite Brightness Start Highest point End
(mag) Time Altitude Azimuth Time Altitude Azimuth Time Altitude Azimuth
Cosmos 2278 3.7 20:02:53 10° SSW 20:08:32 76° ESE 20:14:14 10° NNE
Cosmos 1570 Rocket 4.1 20:06:35 10° SSW 20:11:53 86° WNW 20:17:11 10° NNE
Meteor 2-4 Rocket 4.1 20:09:25 10° NNW 20:15:19 78° W 20:21:14 10° S
H-2A R/B 3.6 20:12:15 10° SE 20:15:42 31° ENE 20:19:13 10° N
Resurs 1-3 3.6 20:15:01 10° SSE 20:19:24 83° ENE 20:23:48 10° N
Lacrosse 5 3.3 20:15:34 10° NNW 20:19:45 25° NE 20:23:55 10° E
Cosmos 1980 Rocket 3.4 20:18:13 10° SE 20:22:13 20° E 20:26:14 10° NE
Cosmos 2369 3.8 20:17:25 10° SSW 20:23:05 89° ESE 20:28:49 10° NNE
Cosmos 1975 3.4 20:20:26 10° SSE 20:24:13 37° E 20:28:02 10° NNE
Cosmos 2123 Rocket 4.0 20:21:52 10° N 20:28:02 72° E 20:34:11 10° SSE
CZ-3C R/B 4.3 18:58:18 10° WSW 20:28:34 44° SSW 20:38:21 11° SE
Lacrosse 5 rocket 1.0 20:26:56 10° NW 20:30:39 68° NE 20:33:43 14° SE
ERS-1 Rocket 4.2 20:28:23 12° ESE 20:31:54 23° ENE 20:35:49 10° NNE
CZ-2D R/B 3.2 20:34:20 10° SSE 20:38:09 67° ENE 20:42:02 10° N
Helios 1B rocket 4.3 20:34:56 10° N 20:38:41 34° WNW 20:42:24 10° SW
FENGYUN 3A 3.6 20:34:17 10° SSE 20:39:36 76° ENE 20:44:58 10° N
EO 1 Delta rocket 4.0 20:35:09 10° NNE 20:39:57 73° E 20:45:38 10° S
Okean 2 4.3 20:36:51 10° NNW 20:40:54 52° W 20:44:55 10° S
CZ-4 DEB 4.3 20:40:10 18° E 20:41:00 19° ENE 20:43:21 10° NNE
Cosmos 1656 3.6 20:36:08 10° SSW 20:41:43 72° ESE 20:47:16 10° NNE
Resurs 01 Rocket 3.1 20:39:57 10° SSW 20:44:04 38° W 20:48:13 10° NNW
Cosmos 1500 3.6 20:41:02 10° SSE 20:44:32 39° E 20:48:04 10° NNE
Cosmos 1898 Rocket 3.8 20:44:06 10° N 20:49:13 47° ENE 20:52:53 18° SE
DELTA 2 R/B (1) 3.6 20:44:25 10° WNW 20:50:01 82° SSW 20:53:52 21° ESE
Cosmos 2227 Rocket 2.6 20:48:05 10° NNW 20:53:42 65° WSW 20:59:16 10° S
Cosmos 1340 4.3 20:52:34 10° NNE 20:55:14 18° ENE 20:55:15 18° ENE
Cosmos 1153 Rocket 4.4 20:50:44 10° S 20:56:55 78° E 21:03:04 10° N
USA 186 1.7 20:55:35 12° S 20:58:22 76° W 21:01:15 10° NNW
OAO 2 Rocket 3.4 20:53:55 10° W 20:58:52 65° S 21:01:47 25° ESE
Cosmos 468 Rocket 3.8 20:55:27 10° S 21:00:32 73° ESE 21:05:40 10° NNE
OTV 4 2.0 20:58:12 10° W 21:00:43 25° SSW 21:01:32 22° S
Meteor 1-12 Rocket 4.5 20:55:06 10° SSW 21:00:48 76° W 21:06:41 10° N
Cosmos 1939 Rocket 3.7 21:00:58 27° ESE 21:02:13 33° ENE 21:05:57 10° N
ALOS 3.0 20:59:48 10° S 21:04:22 55° W 21:08:58 10° NNW
Cosmos 841 Rocket 4.1 21:03:13 17° SSE 21:06:29 33° E 21:11:06 10° NE
Cosmos 1447 Rocket 4.5 21:00:41 10° N 21:07:02 83° E 21:13:23 10° S
Cosmos 2297 Rocket 2.5 21:03:09 10° NNW 21:08:47 68° WSW 21:13:58 12° S
Cosmos 2082 4.5 21:04:14 10° NNW 21:09:38 50° WSW 21:15:02 10° S
Cosmos 1515 3.6 21:06:26 10° N 21:10:18 90° SE 21:12:43 22° S
Cosmos 1814 Rocket 3.9 21:06:57 10° SSW 21:12:16 79° ESE 21:17:36 10° NNE
Cosmos 1802 Rocket 4.2 21:07:08 10° SSE 21:13:16 51° E 21:19:28 10° NNE
Tiangong 1 1.6 21:19:36 10° WNW 21:22:36 45° NNE 21:22:45 45° NNE
Cosmos 2016 Rocket 4.1 21:19:32 23° SSE 21:23:13 50° E 21:29:10 10° NNE
Cosmos 1825 Rocket 3.7 21:19:00 10° N 21:23:18 50° E 21:24:00 45° ESE
Cosmos 1743 2.6 21:23:18 41° SSE 21:24:32 70° E 21:28:26 10° NNE
ASTEX 1 4.1 21:20:42 10° NNE 21:25:07 34° E 21:25:07 34° E
RESURS DK-1 2.2 21:26:44 10° NNW 21:30:54 78° ENE 21:31:31 62° SE
Cosmos 1953 Rocket 3.8 21:30:01 10° N 21:34:19 49° E 21:34:19 49° E
H-2A R/B 2.3 21:35:03 47° ENE 21:35:03 47° ENE 21:38:49 10° N
Cosmos 2173 Rocket 4.0 21:28:59 10° S 21:35:21 89° E 21:41:43 10° N
Cosmos 1697 Rocket 3.6 21:36:45 10° SW 21:42:11 48° WNW 21:47:39 10° N
Envisat 2.9 21:43:51 46° SSE 21:45:25 88° WSW 21:50:32 10° NNW
Cosmos 2084 4.3 21:41:35 10° NW 21:45:30 42° WSW 21:46:23 37° SSW
Cosmos 967 Rocket 4.4 21:43:03 10° NNW 21:49:22 69° ENE 21:50:51 52° ESE
Cosmos 1937 Rocket 3.8 21:45:28 10° NNW 21:50:43 66° WSW 21:52:28 41° S
Cosmos 2100 Rocket 4.4 21:44:42 10° SSW 21:50:55 63° W 21:57:06 10° N
Cosmos 1864 Rocket 4.5 21:50:50 52° ESE 21:51:33 55° E 21:57:30 10° NNE
SL-16 R/B 3.3 21:54:57 28° NE 21:54:57 28° NE 21:57:55 10° NE
Cosmos 1758 Rocket 3.8 21:48:36 10° N 21:52:16 57° NNE 21:52:16 57° NNE
Nimbus 7 Rocket 4.3 21:48:30 10° NNE 21:54:36 84° ESE 21:58:12 26° SSW
ARGOS 3.8 21:57:55 39° ENE 21:57:55 39° ENE 22:02:25 10° N
deb Chang Zheng 4 3.7 21:54:28 10° N 21:58:56 77° WNW 21:59:15 72° WSW
Cosmos 990 Rocket 4.1 21:56:07 10° NNW 22:01:21 72° WSW 22:02:09 61° SSW
Lacrosse 5 2.0 21:58:02 10° NW 22:03:02 60° SW 22:03:17 59° SW
Tsikada Rocket 4.0 21:57:18 10° N 22:03:40 61° E 22:04:10 59° ESE
Cosmos 1980 Rocket 3.0 22:00:15 10° SW 22:05:44 51° WNW 22:11:18 10° NNE
H-2A R/B 3.7 22:08:08 20° NE 22:08:08 20° NE 22:10:22 10° NNE
SPOT 5 2.8 22:07:52 86° W 22:07:52 86° W 22:12:40 10° NNW
Cosmos 1666 4.5 22:10:52 27° N 22:10:52 27° N 22:12:43 10° N
MetOp-B 4.0 22:09:33 83° E 22:09:36 83° ENE 22:14:59 10° NNW
ERS-1 Rocket 4.2 22:08:24 26° SW 22:10:25 37° W 22:15:05 10° NNW
Cosmos 2058 Rocket 3.8 22:18:14 53° NNW 22:18:14 53° NNW 22:21:56 10° N
Cosmos 1725 Rocket 4.0 22:22:33 61° SSW 22:23:39 79° W 22:29:55 10° N
Cosmos 2098 Rocket 4.2 22:22:29 36° SSW 22:25:21 68° W 22:31:10 10° N
SPOT 1/Viking Rocket 3.9 22:26:33 59° N 22:26:33 59° N 22:30:48 10° N
Terra 3.8 22:33:41 20° NNE 22:33:41 20° NNE 22:35:28 10° N
Cosmos 2263 Rocket 3.3 22:28:43 10° N 22:32:32 34° NNE 22:32:32 34° NNE
Cosmos 1125 Rocket 4.1 22:32:20 10° NNW 22:36:17 52° NNW 22:36:17 52° NNW
Cosmos 2322 Rocket 2.7 22:40:22 54° N 22:40:22 54° N 22:44:50 10° NNE
BREEZE-M DEB (TANK) 4.0 22:32:41 10° W 22:42:29 45° NNW 22:43:19 41° N
Cosmos 2233 Rocket 4.2 22:48:18 65° N 22:48:18 65° N 22:53:34 10° N
USA 215 3.9 22:53:25 44° NE 22:53:34 44° NE 22:59:42 10° NW
SL-16 R/B 4.0 23:36:43 26° WNW 23:36:51 26° WNW 23:41:32 10° N
BREEZE-M DEB (TANK) 4.5 23:27:14 10° NW 23:36:51 48° NW 23:36:51 48° NW
H-2A R/B 4.4 23:48:47 18° NW 23:48:47 18° NW 23:50:15 10° NNW
Cosmos 2360 Rocket 4.3 23:53:36 22° N 23:53:36 22° N 23:55:36 10° NNE
